• In Germany
  • List of Countries
  • For 7 days
  • Water Temperature
  • Satellite Maps
  • Weather Map
  • Weather Widgets
  • user-avatar
    Login

    Hourly Weather Ischgl

    Today, 25 September, Monday

    Time Temperature Precipitation Wind Pressure Humidity
    00:00 0°C° 0 mm 1 mps 575 mmHg 90%
    01:00 -1°C° 0 mm 1 mps 575 mmHg 90%
    02:00 -1°C° 0 mm 1 mps 574 mmHg 89%
    03:00 -1°C° 0 mm 1 mps 574 mmHg 88%
    04:00 -1°C° 0 mm 1 mps 574 mmHg 87%
    05:00 -1°C° 0 mm 1 mps 574 mmHg 85%
    06:00 -1°C° 0 mm 1 mps 574 mmHg 83%
    07:00 0°C° 0 mm 1 mps 574 mmHg 81%
    08:00 +2°C° 0 mm 1 mps 575 mmHg 73%
    09:00 +4°C° 0 mm 1 mps 576 mmHg 65%
    10:00 +5°C° 0 mm 0 mps 577 mmHg 57%
    11:00 +6°C° 0 mm 0 mps 578 mmHg 55%
    12:00 +8°C° 0 mm 1 mps 578 mmHg 52%
    13:00 +9°C° 0 mm 1 mps 578 mmHg 50%
    14:00 +8°C° 0 mm 1 mps 578 mmHg 52%
    15:00 +8°C° 0 mm 1 mps 577 mmHg 55%
    16:00 +7°C° 0 mm 1 mps 577 mmHg 58%
    17:00 +5°C° 0 mm 1 mps 576 mmHg 68%
    18:00 +3°C° 0 mm 1 mps 575 mmHg 78%
    19:00 0°C° 0 mm 0 mps 574 mmHg 87%
    20:00 +1°C° 0 mm 1 mps 575 mmHg 88%
    21:00 0°C° 0 mm 1 mps 575 mmHg 88%
    22:00 0°C° 0 mm 1 mps 575 mmHg 88%
    23:00 0°C° 0 mm 1 mps 575 mmHg 88%

    Tomorrow, 26 September, Tuesday

    Time Temperature Precipitation Wind Pressure Humidity
    00:00 0°C° 0 mm 1 mps 575 mmHg 88%
    01:00 0°C° 0 mm 1 mps 575 mmHg 87%
    02:00 0°C° 0 mm 1 mps 575 mmHg 88%
    03:00 0°C° 0 mm 1 mps 575 mmHg 88%
    04:00 0°C° 0 mm 1 mps 575 mmHg 88%
    05:00 0°C° 0 mm 1 mps 575 mmHg 87%
    06:00 0°C° 0 mm 1 mps 575 mmHg 86%
    07:00 +1°C° 0 mm 1 mps 576 mmHg 85%
    08:00 +3°C° 0 mm 1 mps 577 mmHg 78%
    09:00 +5°C° 0 mm 1 mps 578 mmHg 70%
    10:00 +6°C° 0 mm 0 mps 579 mmHg 62%
    11:00 +8°C° 0 mm 1 mps 579 mmHg 61%
    12:00 +8°C° 0 mm 1 mps 579 mmHg 59%
    13:00 +9°C° 0 mm 1 mps 579 mmHg 58%
    14:00 +8°C° 0.2 mm 1 mps 579 mmHg 62%
    15:00 +8°C° 0.2 mm 1 mps 579 mmHg 66%
    16:00 +7°C° 0.2 mm 1 mps 578 mmHg 70%
    17:00 +6°C° 0.1 mm 1 mps 578 mmHg 77%
    18:00 +4°C° 0.1 mm 1 mps 577 mmHg 84%
    19:00 +1°C° 0.1 mm 0 mps 577 mmHg 91%
    20:00 +2°C° 0.1 mm 1 mps 577 mmHg 91%
    21:00 +2°C° 0.1 mm 1 mps 577 mmHg 91%
    22:00 +2°C° 0.1 mm 1 mps 577 mmHg 91%
    23:00 +2°C° 0.1 mm 1 mps 577 mmHg 90%

    Day after tomorrow, 27 September, Wednesday

    Time Temperature Precipitation Wind Pressure Humidity
    00:00 +2°C° 0.1 mm 1 mps 577 mmHg 90%
    01:00 +2°C° 0.1 mm 1 mps 577 mmHg 89%
    02:00 +2°C° 0 mm 1 mps 577 mmHg 89%
    03:00 +2°C° 0 mm 1 mps 577 mmHg 89%
    04:00 +2°C° 0 mm 1 mps 577 mmHg 89%
    05:00 +2°C° 0 mm 1 mps 577 mmHg 89%
    06:00 +2°C° 0 mm 1 mps 577 mmHg 89%
    07:00 +2°C° 0 mm 1 mps 578 mmHg 88%
    08:00 +4°C° 0 mm 1 mps 579 mmHg 81%
    09:00 +6°C° 0 mm 1 mps 580 mmHg 73%
    10:00 +8°C° 0 mm 1 mps 580 mmHg 65%
    11:00 +9°C° 0.1 mm 1 mps 581 mmHg 64%
    12:00 +9°C° 0.1 mm 1 mps 581 mmHg 62%
    13:00 +10°C° 0.1 mm 1 mps 581 mmHg 61%
    14:00 +9°C° 0.4 mm 1 mps 580 mmHg 65%
    15:00 +9°C° 0.4 mm 1 mps 580 mmHg 69%
    16:00 +8°C° 0.4 mm 1 mps 580 mmHg 73%
    17:00 +7°C° 0.2 mm 1 mps 579 mmHg 78%
    18:00 +5°C° 0.2 mm 1 mps 579 mmHg 83%
    19:00 +4°C° 0.2 mm 1 mps 578 mmHg 89%
    20:00 +3°C° 0 mm 1 mps 578 mmHg 89%
    21:00 +3°C° 0 mm 1 mps 578 mmHg 90%
    22:00 +2°C° 0 mm 1 mps 578 mmHg 90%
    23:00 +2°C° 0 mm 1 mps 578 mmHg 90%

    28 September, Thursday

    Time Temperature Precipitation Wind Pressure Humidity
    00:00 +2°C° 0 mm 1 mps 578 mmHg 90%
    01:00 +2°C° 0 mm 1 mps 578 mmHg 90%
    02:00 +1°C° 0 mm 1 mps 577 mmHg 90%
    03:00 +1°C° 0 mm 1 mps 577 mmHg 90%
    04:00 +1°C° 0 mm 1 mps 577 mmHg 90%
    05:00 +1°C° 0 mm 1 mps 577 mmHg 89%
    06:00 +2°C° 0 mm 1 mps 578 mmHg 88%
    07:00 +2°C° 0 mm 1 mps 578 mmHg 86%
    08:00 +4°C° 0 mm 1 mps 579 mmHg 77%
    09:00 +7°C° 0 mm 1 mps 580 mmHg 68%
    10:00 +9°C° 0 mm 1 mps 582 mmHg 59%
    11:00 +10°C° 0 mm 1 mps 582 mmHg 57%
    12:00 +10°C° 0 mm 1 mps 582 mmHg 56%
    13:00 +11°C° 0 mm 1 mps 582 mmHg 54%
    14:00 +9°C° 0.3 mm 2 mps 581 mmHg 60%
    15:00 +8°C° 0.3 mm 2 mps 581 mmHg 66%
    16:00 +8°C° 0.3 mm 2 mps 580 mmHg 72%
    17:00 +7°C° 0.3 mm 1 mps 580 mmHg 79%
    18:00 +6°C° 0.3 mm 1 mps 580 mmHg 86%
    19:00 +4°C° 0.3 mm 1 mps 579 mmHg 93%
    20:00 +4°C° 0.2 mm 1 mps 579 mmHg 93%
    21:00 +4°C° 0.2 mm 1 mps 579 mmHg 93%
    22:00 +3°C° 0.2 mm 1 mps 579 mmHg 94%
    23:00 +3°C° 0.1 mm 1 mps 578 mmHg 93%

    29 September, Friday

    Time Temperature Precipitation Wind Pressure Humidity
    00:00 +2°C° 0.1 mm 1 mps 578 mmHg 91%
    01:00 +2°C° 0.1 mm 1 mps 578 mmHg 90%
    02:00 +2°C° 0 mm 1 mps 578 mmHg 88%
    03:00 +2°C° 0 mm 1 mps 577 mmHg 86%
    04:00 +2°C° 0 mm 1 mps 577 mmHg 84%
    05:00 +2°C° 0 mm 1 mps 577 mmHg 82%
    06:00 +2°C° 0 mm 1 mps 577 mmHg 81%
    07:00 +2°C° 0 mm 1 mps 577 mmHg 79%
    08:00 +4°C° 0 mm 1 mps 578 mmHg 72%
    09:00 +5°C° 0 mm 0 mps 579 mmHg 66%
    10:00 +7°C° 0 mm 0 mps 580 mmHg 59%
    11:00 +9°C° 0 mm 1 mps 580 mmHg 58%
    12:00 +9°C° 0 mm 1 mps 580 mmHg 57%
    13:00 +10°C° 0 mm 1 mps 580 mmHg 56%
    14:00 +9°C° 0.1 mm 1 mps 580 mmHg 60%
    15:00 +9°C° 0.1 mm 1 mps 579 mmHg 64%
    16:00 +8°C° 0.1 mm 1 mps 579 mmHg 68%
    17:00 +6°C° 0.1 mm 1 mps 578 mmHg 76%
    18:00 +5°C° 0.1 mm 1 mps 577 mmHg 85%
    19:00 +2°C° 0.1 mm 0 mps 576 mmHg 93%
    20:00 +2°C° 0 mm 0 mps 576 mmHg 93%
    21:00 +2°C° 0 mm 1 mps 576 mmHg 93%
    22:00 +2°C° 0 mm 1 mps 576 mmHg 93%
    23:00 +2°C° 0 mm 1 mps 576 mmHg 93%

    30 September, Saturday

    Time Temperature Precipitation Wind Pressure Humidity
    00:00 +1°C° 0 mm 1 mps 576 mmHg 93%
    01:00 +1°C° 0 mm 1 mps 576 mmHg 92%
    02:00 +1°C° 0 mm 1 mps 575 mmHg 92%
    03:00 +1°C° 0 mm 1 mps 575 mmHg 92%
    04:00 +1°C° 0 mm 1 mps 575 mmHg 92%
    05:00 +1°C° 0 mm 1 mps 575 mmHg 91%
    06:00 +1°C° 0 mm 1 mps 575 mmHg 90%
    07:00 +1°C° 0 mm 1 mps 575 mmHg 89%
    08:00 +3°C° 0 mm 1 mps 576 mmHg 80%
    09:00 +6°C° 0 mm 1 mps 577 mmHg 72%
    10:00 +8°C° 0 mm 1 mps 578 mmHg 63%
    11:00 +8°C° 0 mm 1 mps 578 mmHg 61%
    12:00 +8°C° 0 mm 2 mps 578 mmHg 58%
    13:00 +9°C° 0 mm 2 mps 578 mmHg 56%
    14:00 +8°C° 0.1 mm 2 mps 578 mmHg 60%
    15:00 +8°C° 0.1 mm 2 mps 578 mmHg 64%
    16:00 +7°C° 0.1 mm 2 mps 577 mmHg 68%
    17:00 +6°C° 0.1 mm 1 mps 576 mmHg 77%
    18:00 +5°C° 0.1 mm 1 mps 576 mmHg 86%
    19:00 +3°C° 0.1 mm 1 mps 575 mmHg 94%
    20:00 +3°C° 0 mm 1 mps 575 mmHg 95%
    21:00 +2°C° 0 mm 1 mps 575 mmHg 95%
    22:00 +2°C° 0 mm 1 mps 575 mmHg 96%
    23:00 +2°C° 0 mm 1 mps 575 mmHg 96%
    Show more